Orbital Elements at Epoch 2459000.5 (2020-May-31.0) TDB
Reference: JPL 4 (heliocentric ecliptic J2000)
Element | Value | Uncertainty (1-sigma) | Units |
e | .1270194580646226 | 6.0911e-08 | |
a | 2.669914678196104 | 4.0523e-08 | au |
q | 2.330783562692853 | 1.553e-07 | au |
i | 15.14200388197174 | 9.1623e-06 | deg |
node | 53.20189468049298 | 2.9057e-05 | deg |
peri | 235.2019132437967 | 5.13e-05 | deg |
M | 112.7882426918827 | 4.1098e-05 | deg |
tp | 2458501.264073796052 (2019-Jan-17.76407380) | 0.00018279 | TDB |
period | 1593.47223738912 4.36 | 3.6278e-05 9.932e-08 | d yr |
n | .2259217271270785 | 5.1434e-09 | deg/d |
Q | 3.009045793699355 | 4.567e-08 | au |
|
| | Orbit Determination Parameters
Additional Information
|